Eastman, GA

9:13 PM EDT on April 25, 2018 (GMT -0400)
Heart Of Georgia Regional

Weather History for KEZM - April, 2014

Change the Weather History Date:

Saturday, April 12, 2014

  Actual Average Record
Temperature  
Mean Temperature 68 °F -  
Max Temperature 85 °F 77 °F 85 °F (2014)
Min Temperature 52 °F 49 °F 43 °F (2018)
Cooling Degree Days 4    
Growing Degree Days 18 (Base 50)    
Moisture  
Dew Point 57 °F    
Average Humidity 71    
Maximum Humidity 100    
Minimum Humidity 34    
Precipitation  
Precipitation 0.00 in - - ()
Sea Level Pressure  
Sea Level Pressure 30.20 in    
Wind  
Wind Speed 1 mph (South)    
Max Wind Speed 8 mph    
Max Gust Speed -    
Visibility 7 miles    
Events Fog    
Averages and records for this station are not official NWS values.
T = Trace of Precipitation, MM = Missing Value Source: NWS Daily Summary

Daily Weather History Graph

Daily Weather History Graph

Search for Another Location

Airport or City:

Astronomy

Apr. 12, 2014 Rise Set
Actual Time 7:07 AM EDT 7:59 PM EDT
Civil Twilight 6:42 AM EDT 8:25 PM EDT
Nautical Twilight 6:12 AM EDT 8:54 PM EDT
Astronomical Twilight 5:42 AM EDT 9:25 PM EDT
Moon 5:44 PM EDT (4/12) 5:24 AM EDT (4/12)
Length of Visible Light 13h 42m
Length of Day
12h 52m
Waxing Gibbous, 93% of the Moon is Illuminated
Apr 12
Waxing Gibbous
Apr 15
Full
Apr 22
Last Quarter
Apr 29
New
May 6
First Quarter

Hourly Weather History & Observations

Time (EDT) Temp. Heat Index Dew Point Humidity Pressure Visibility Wind Dir Wind Speed Gust Speed Precip Events Conditions
12:15 AM 57.4 °F - 57.4 °F 100% 30.22 in 7.0 mi Calm Calm - N/A   Scattered Clouds
12:35 AM 56.8 °F - 56.8 °F 100% 30.22 in 5.0 mi Calm Calm - N/A   Clear
12:55 AM 57.2 °F - 57.2 °F 100% 30.22 in 7.0 mi Calm Calm - N/A   Clear
1:15 AM 55.9 °F - 55.9 °F 100% 30.22 in 3.0 mi Calm Calm - N/A   Clear
1:35 AM 55.8 °F - 55.8 °F 100% 30.22 in 0.5 mi Calm Calm - N/A Fog Fog
1:55 AM 55.8 °F - 55.8 °F 100% 30.22 in 0.2 mi Calm Calm - N/A Fog Fog
2:15 AM 54.9 °F - 54.9 °F 100% 30.22 in 0.2 mi Calm Calm - N/A Fog Fog
2:35 AM 54.9 °F - 54.9 °F 100% 30.21 in 1.2 mi Calm Calm - N/A   Mist
2:55 AM 54.5 °F - 54.5 °F 100% 30.21 in 0.8 mi Calm Calm - N/A   Mist
3:15 AM 56.3 °F - 56.3 °F 100% 30.21 in 7.0 mi Calm Calm - N/A   Clear
3:35 AM 55.0 °F - 55.0 °F 100% 30.20 in 0.2 mi Calm Calm - N/A Fog Fog
3:55 AM 54.7 °F - 54.7 °F 100% 30.20 in 1.0 mi Calm Calm - N/A   Mist
4:15 AM 54.9 °F - 54.9 °F 100% 30.20 in 0.8 mi Calm Calm - N/A   Mist
4:35 AM 54.3 °F - 54.3 °F 100% 30.20 in 0.8 mi Calm Calm - N/A   Mist
4:55 AM 53.2 °F - 53.2 °F 100% 30.20 in 0.2 mi Calm Calm - N/A Fog Fog
5:15 AM 53.6 °F - 53.6 °F 100% 30.20 in 0.8 mi Calm Calm - N/A   Mist
5:35 AM 53.1 °F - 53.1 °F 100% 30.21 in 0.5 mi Calm Calm - N/A Fog Fog
5:55 AM 53.6 °F - 53.6 °F 100% 30.21 in 0.5 mi Calm Calm - N/A Fog Fog
6:15 AM 53.1 °F - 53.1 °F 100% 30.21 in 0.2 mi Calm Calm - N/A Fog Fog
6:35 AM 52.2 °F - 52.2 °F 100% 30.21 in 1.8 mi Calm Calm - N/A   Mist
6:55 AM 52.7 °F - 52.7 °F 100% 30.22 in 0.2 mi Calm Calm - N/A Fog Fog
7:15 AM 52.5 °F - 52.5 °F 100% 30.23 in 0.2 mi Calm Calm - N/A Fog Fog
7:35 AM 52.7 °F - 52.7 °F 100% 30.23 in 3.0 mi Calm Calm - N/A   Clear
7:55 AM 54.0 °F - 54.0 °F 100% 30.24 in 5.0 mi Calm Calm - N/A   Clear
8:15 AM 56.3 °F - 56.3 °F 100% 30.25 in 5.0 mi Calm Calm - N/A   Clear
8:35 AM 59.2 °F - 59.2 °F 100% 30.24 in 7.0 mi Calm Calm - N/A   Clear
8:55 AM 61.5 °F - 61.5 °F 100% 30.24 in 10.0 mi Calm Calm - N/A   Clear
9:15 AM 65.1 °F - 62.8 °F 92% 30.25 in 10.0 mi Calm Calm - N/A   Clear
9:35 AM 69.1 °F - 63.3 °F 82% 30.25 in 10.0 mi Calm Calm - N/A   Clear
9:55 AM 73.2 °F - 62.1 °F 68% 30.25 in 10.0 mi South 4.6 mph - N/A   Clear
10:15 AM 75.6 °F - 59.7 °F 58% 30.25 in 10.0 mi South 5.8 mph - N/A   Clear
10:35 AM 77.2 °F - 57.2 °F 50% 30.26 in 10.0 mi SSE 5.8 mph - N/A   Clear
10:55 AM 77.9 °F - 56.5 °F 48% 30.26 in 10.0 mi South 4.6 mph - N/A   Clear
11:15 AM 79.0 °F - 57.0 °F 47% 30.26 in 10.0 mi Calm Calm - N/A   Clear
11:35 AM 80.1 °F 80.4 °F 57.2 °F 45% 30.26 in 10.0 mi SSE 5.8 mph - N/A   Clear
11:55 AM 80.6 °F 80.8 °F 57.6 °F 45% 30.25 in 10.0 mi SSE 4.6 mph - N/A   Clear
12:15 PM 80.6 °F 80.7 °F 56.7 °F 44% 30.25 in 10.0 mi SSW 8.1 mph - N/A   Scattered Clouds
12:35 PM 81.3 °F 81.0 °F 55.6 °F 41% 30.25 in 10.0 mi South 4.6 mph - N/A   Scattered Clouds
12:55 PM 82.4 °F 81.9 °F 56.3 °F 41% 30.24 in 10.0 mi SSW 6.9 mph - N/A   Mostly Cloudy
1:15 PM 81.5 °F 81.0 °F 55.2 °F 40% 30.23 in 10.0 mi Calm Calm - N/A   Scattered Clouds
1:35 PM 82.4 °F 81.6 °F 54.5 °F 38% 30.23 in 10.0 mi SSW 6.9 mph - N/A   Mostly Cloudy
1:55 PM 83.1 °F 82.3 °F 55.6 °F 39% 30.22 in 10.0 mi East 4.6 mph - N/A   Mostly Cloudy
2:15 PM 82.9 °F 82.1 °F 55.6 °F 39% 30.21 in 10.0 mi SSE 6.9 mph - N/A   Mostly Cloudy
2:35 PM 83.3 °F 82.2 °F 54.5 °F 37% 30.20 in 10.0 mi Calm Calm - N/A   Scattered Clouds
2:55 PM 82.2 °F 81.5 °F 54.7 °F 39% 30.20 in 10.0 mi Calm Calm - N/A   Mostly Cloudy
3:15 PM 83.8 °F 82.7 °F 55.0 °F 37% 30.19 in 10.0 mi SSE 4.6 mph - N/A   Overcast
3:35 PM 83.1 °F 82.1 °F 54.1 °F 37% 30.18 in 10.0 mi Calm Calm - N/A   Scattered Clouds
3:55 PM 83.5 °F 82.2 °F 54.0 °F 36% 30.17 in 10.0 mi Calm Calm - N/A   Scattered Clouds
4:15 PM 85.3 °F 83.6 °F 54.0 °F 34% 30.16 in 10.0 mi SW 5.8 mph - N/A   Mostly Cloudy
4:35 PM 84.9 °F 83.3 °F 53.8 °F 34% 30.15 in 10.0 mi SSW 3.5 mph - N/A   Scattered Clouds
4:55 PM 85.5 °F 83.8 °F 54.0 °F 34% 30.15 in 10.0 mi SSE 4.6 mph - N/A   Scattered Clouds
5:15 PM 82.8 °F 81.9 °F 54.7 °F 38% 30.15 in 10.0 mi South 5.8 mph - N/A   Scattered Clouds
5:35 PM 85.3 °F 83.8 °F 54.5 °F 35% 30.14 in 10.0 mi SW 3.5 mph - N/A   Scattered Clouds
5:55 PM 84.4 °F 82.9 °F 53.6 °F 35% 30.14 in 10.0 mi SSW 5.8 mph - N/A   Scattered Clouds
6:15 PM 83.3 °F 82.2 °F 54.7 °F 37% 30.13 in 10.0 mi SW 3.5 mph - N/A   Scattered Clouds
6:35 PM 82.4 °F 81.7 °F 55.2 °F 39% 30.13 in 10.0 mi SSW 5.8 mph - N/A   Scattered Clouds
6:55 PM 82.8 °F 82.0 °F 55.2 °F 39% 30.14 in 10.0 mi SW 4.6 mph - N/A   Scattered Clouds
7:15 PM 80.6 °F 80.8 °F 57.2 °F 45% 30.14 in 10.0 mi SSW 3.5 mph - N/A   Clear
7:35 PM 78.8 °F - 58.1 °F 49% 30.14 in 10.0 mi South 3.5 mph - N/A   Clear
7:55 PM 76.3 °F - 59.0 °F 55% 30.14 in 10.0 mi Calm Calm - N/A   Clear
8:15 PM 73.8 °F - 59.0 °F 60% 30.14 in 10.0 mi Calm Calm - N/A   Clear
8:35 PM 72.1 °F - 60.8 °F 67% 30.15 in 10.0 mi Calm Calm - N/A   Clear
8:55 PM 69.4 °F - 60.8 °F 74% 30.15 in 10.0 mi Calm Calm - N/A   Clear
9:15 PM 68.7 °F - 61.0 °F 76% 30.15 in 10.0 mi Calm Calm - N/A   Clear
9:35 PM 67.6 °F - 61.7 °F 81% 30.16 in 10.0 mi Calm Calm - N/A   Clear
9:55 PM 65.5 °F - 62.1 °F 89% 30.17 in 10.0 mi Calm Calm - N/A   Clear
10:15 PM 64.4 °F - 61.9 °F 92% 30.17 in 10.0 mi Calm Calm - N/A   Clear
10:35 PM 64.4 °F - 62.2 °F 93% 30.17 in 10.0 mi Calm Calm - N/A   Clear
10:55 PM 68.5 °F - 61.0 °F 77% 30.18 in 10.0 mi SE 3.5 mph - N/A   Clear
11:15 PM 69.8 °F - 59.9 °F 71% 30.18 in 10.0 mi SE 5.8 mph - N/A   Clear
11:35 PM 68.9 °F - 59.2 °F 71% 30.18 in 10.0 mi SE 3.5 mph - N/A   Clear
11:55 PM 66.7 °F - 59.0 °F 76% 30.18 in 10.0 mi Calm Calm - N/A   Clear